Time,TemperatureF,DewpointF,PressureIn,WindDirection,WindDirectionDegrees,WindSpeedMPH,WindSpeedGustMPH,Humidity,HourlyPrecipIn,Conditions,Clouds,dailyrainin,SoftwareType,DateUTC
2013-04-26 00:01:00,42.6,29.7,29.90,WSW,239,9.0,17.0,60,0.00,,,0.00,meteohub,2013-04-26 06:01:00,
2013-04-26 00:07:00,43.2,29.8,29.90,SW,233,13.0,17.0,59,0.00,,,0.00,meteohub,2013-04-26 06:07:00,
2013-04-26 00:13:00,43.0,29.7,29.90,West,261,8.0,17.0,59,0.00,,,0.00,meteohub,2013-04-26 06:13:00,
2013-04-26 00:19:00,43.0,28.8,29.91,WSW,254,6.0,17.0,57,0.00,,,0.00,meteohub,2013-04-26 06:19:00,
2013-04-26 00:25:00,42.8,28.6,29.91,WSW,251,7.0,17.0,57,0.00,,,0.00,meteohub,2013-04-26 06:25:00,
2013-04-26 00:31:00,42.6,28.0,29.91,WSW,251,3.0,12.0,56,0.00,,,0.00,meteohub,2013-04-26 06:31:00,
2013-04-26 00:37:00,42.4,27.9,29.91,SW,220,11.0,11.0,56,0.00,,,0.00,meteohub,2013-04-26 06:37:00,
2013-04-26 00:43:00,42.6,28.4,29.91,SW,220,5.0,11.0,57,0.00,,,0.00,meteohub,2013-04-26 06:43:00,
2013-04-26 00:49:00,42.3,28.0,29.91,SW,220,6.0,11.0,57,0.00,,,0.00,meteohub,2013-04-26 06:49:00,
2013-04-26 00:55:00,42.3,28.0,29.91,SW,222,7.0,11.0,57,0.00,,,0.00,meteohub,2013-04-26 06:55:00,
2013-04-26 01:01:00,42.3,27.7,29.91,SW,215,11.0,11.0,56,0.00,,,0.00,meteohub,2013-04-26 07:01:00,
2013-04-26 01:07:00,42.4,28.8,29.90,SSW,198,10.0,16.0,58,0.00,,,0.00,meteohub,2013-04-26 07:07:00,
2013-04-26 01:13:00,42.4,27.9,29.91,SW,216,8.0,16.0,56,0.00,,,0.00,meteohub,2013-04-26 07:13:00,
2013-04-26 01:19:00,42.4,27.0,29.91,SW,224,7.0,16.0,54,0.00,,,0.00,meteohub,2013-04-26 07:19:00,
2013-04-26 01:25:00,42.3,27.7,29.91,SW,226,7.0,15.0,56,0.00,,,0.00,meteohub,2013-04-26 07:25:00,
2013-04-26 01:31:00,42.3,28.0,29.91,SW,228,5.0,15.0,57,0.00,,,0.00,meteohub,2013-04-26 07:31:00,
2013-04-26 01:37:00,42.4,27.0,29.91,SW,235,4.0,13.0,54,0.00,,,0.00,meteohub,2013-04-26 07:37:00,
2013-04-26 01:43:00,41.0,25.2,29.90,SW,235,5.0,13.0,53,0.00,,,0.00,meteohub,2013-04-26 07:43:00,
2013-04-26 01:49:00,40.5,27.7,29.90,SW,222,6.0,11.0,60,0.00,,,0.00,meteohub,2013-04-26 07:49:00,
2013-04-26 01:55:00,40.5,26.8,29.90,SW,226,6.0,14.0,58,0.00,,,0.00,meteohub,2013-04-26 07:55:00,
2013-04-26 02:01:00,40.1,26.6,29.90,SW,218,7.0,14.0,58,0.00,,,0.00,meteohub,2013-04-26 08:01:00,
2013-04-26 02:07:00,40.5,29.3,29.90,SW,232,4.0,13.0,64,0.00,,,0.00,meteohub,2013-04-26 08:07:00,
2013-04-26 02:13:00,40.5,29.7,29.90,WSW,245,8.0,13.0,65,0.00,,,0.00,meteohub,2013-04-26 08:13:00,
2013-04-26 02:19:00,40.8,30.0,29.90,WSW,250,9.0,16.0,65,0.00,,,0.00,meteohub,2013-04-26 08:19:00,
2013-04-26 02:25:00,40.8,30.4,29.91,WSW,256,6.0,16.0,66,0.00,,,0.00,meteohub,2013-04-26 08:25:00,
2013-04-26 02:32:00,41.0,30.6,29.91,WSW,251,7.0,13.0,66,0.00,,,0.00,meteohub,2013-04-26 08:32:00,
2013-04-26 02:38:00,41.2,30.7,29.90,West,264,7.0,13.0,66,0.00,,,0.00,meteohub,2013-04-26 08:38:00,
2013-04-26 02:44:00,41.0,30.6,29.91,West,264,5.0,12.0,66,0.00,,,0.00,meteohub,2013-04-26 08:44:00,
2013-04-26 02:50:00,40.8,30.4,29.91,West,264,4.0,12.0,66,0.00,,,0.00,meteohub,2013-04-26 08:50:00,
2013-04-26 02:56:00,41.2,30.7,29.91,West,262,5.0,10.0,66,0.00,,,0.00,meteohub,2013-04-26 08:56:00,
2013-04-26 03:02:00,40.8,29.1,29.91,West,259,5.0,10.0,63,0.00,,,0.00,meteohub,2013-04-26 09:02:00,
2013-04-26 03:08:00,40.1,28.0,29.91,West,259,1.0,10.0,62,0.00,,,0.00,meteohub,2013-04-26 09:08:00,
2013-04-26 03:14:00,39.6,27.7,29.91,West,259,0.0,9.0,62,0.00,,,0.00,meteohub,2013-04-26 09:14:00,
2013-04-26 03:20:00,39.0,27.1,29.91,West,259,3.0,7.0,62,0.00,,,0.00,meteohub,2013-04-26 09:20:00,
2013-04-26 03:26:00,38.3,26.8,29.91,West,259,3.0,6.0,63,0.00,,,0.00,meteohub,2013-04-26 09:26:00,
2013-04-26 03:32:00,37.6,26.6,29.91,West,259,2.0,6.0,64,0.00,,,0.00,meteohub,2013-04-26 09:32:00,
2013-04-26 03:38:00,36.9,26.2,29.91,West,259,4.0,7.0,65,0.00,,,0.00,meteohub,2013-04-26 09:38:00,
2013-04-26 03:44:00,36.9,25.9,29.91,West,259,6.0,7.0,64,0.00,,,0.00,meteohub,2013-04-26 09:44:00,
2013-04-26 03:50:00,36.7,25.0,29.91,West,260,5.0,7.0,62,0.00,,,0.00,meteohub,2013-04-26 09:50:00,
2013-04-26 03:56:00,36.5,23.5,29.91,West,260,7.0,8.0,59,0.00,,,0.00,meteohub,2013-04-26 09:56:00,
2013-04-26 04:02:00,36.7,23.4,29.91,West,260,4.0,8.0,58,0.00,,,0.00,meteohub,2013-04-26 10:02:00,
2013-04-26 04:08:00,37.2,24.3,29.91,West,260,4.0,7.0,59,0.00,,,0.00,meteohub,2013-04-26 10:08:00,
2013-04-26 04:14:00,37.2,24.3,29.92,West,260,4.0,7.0,59,0.00,,,0.00,meteohub,2013-04-26 10:14:00,
2013-04-26 04:20:00,37.6,24.1,29.92,West,260,3.0,7.0,58,0.00,,,0.00,meteohub,2013-04-26 10:20:00,
2013-04-26 04:26:00,37.2,24.3,29.92,West,260,1.0,6.0,59,0.00,,,0.00,meteohub,2013-04-26 10:26:00,
2013-04-26 04:32:00,36.9,24.3,29.92,West,260,1.0,5.0,60,0.00,,,0.00,meteohub,2013-04-26 10:32:00,
2013-04-26 04:38:00,36.7,24.1,29.92,West,260,1.0,5.0,60,0.00,,,0.00,meteohub,2013-04-26 10:38:00,
2013-04-26 04:44:00,36.3,24.1,29.93,West,260,2.0,4.0,61,0.00,,,0.00,meteohub,2013-04-26 10:44:00,
2013-04-26 04:50:00,36.1,24.8,29.93,West,260,1.0,4.0,63,0.00,,,0.00,meteohub,2013-04-26 10:50:00,
2013-04-26 04:56:00,36.0,24.6,29.94,West,260,3.0,4.0,63,0.00,,,0.00,meteohub,2013-04-26 10:56:00,
2013-04-26 05:02:00,35.6,23.9,29.93,West,260,0.0,4.0,62,0.00,,,0.00,meteohub,2013-04-26 11:02:00,
2013-04-26 05:08:00,35.4,23.4,29.94,West,260,0.0,4.0,61,0.00,,,0.00,meteohub,2013-04-26 11:08:00,
2013-04-26 05:14:00,35.2,23.2,29.94,West,260,0.0,4.0,61,0.00,,,0.00,meteohub,2013-04-26 11:14:00,
2013-04-26 05:20:00,35.2,23.2,29.94,West,260,0.0,0.0,61,0.00,,,0.00,meteohub,2013-04-26 11:20:00,
2013-04-26 05:26:00,34.9,23.2,29.94,West,260,0.0,0.0,62,0.00,,,0.00,meteohub,2013-04-26 11:26:00,
2013-04-26 05:32:00,34.7,23.4,29.94,West,260,0.0,0.0,63,0.00,,,0.00,meteohub,2013-04-26 11:32:00,
2013-04-26 05:38:00,34.7,23.7,29.94,West,260,0.0,0.0,64,0.00,,,0.00,meteohub,2013-04-26 11:38:00,
2013-04-26 05:44:00,34.5,22.8,29.94,West,260,0.0,0.0,62,0.00,,,0.00,meteohub,2013-04-26 11:44:00,
2013-04-26 05:50:00,34.5,22.8,29.95,West,260,3.0,3.0,62,0.00,,,0.00,meteohub,2013-04-26 11:50:00,
2013-04-26 05:56:00,34.3,23.0,29.95,West,260,0.0,4.0,63,0.00,,,0.00,meteohub,2013-04-26 11:56:00,
2013-04-26 06:02:00,34.2,22.1,29.95,West,260,2.0,4.0,61,0.00,,,0.00,meteohub,2013-04-26 12:02:00,
2013-04-26 06:08:00,33.6,21.6,29.96,West,260,3.0,4.0,61,0.00,,,0.00,meteohub,2013-04-26 12:08:00,
2013-04-26 06:15:00,33.1,21.6,29.96,West,260,0.0,4.0,62,0.00,,,0.00,meteohub,2013-04-26 12:15:00,
2013-04-26 06:21:00,32.5,21.0,29.96,West,260,0.0,4.0,62,0.00,,,0.00,meteohub,2013-04-26 12:21:00,
2013-04-26 06:27:00,32.4,20.5,29.96,West,260,0.0,1.0,61,0.00,,,0.00,meteohub,2013-04-26 12:27:00,
2013-04-26 06:32:00,32.4,20.8,29.96,West,260,2.0,2.0,62,0.00,,,0.00,meteohub,2013-04-26 12:32:00,
2013-04-26 06:39:00,32.5,21.7,29.96,West,260,2.0,4.0,64,0.00,,,0.00,meteohub,2013-04-26 12:39:00,
2013-04-26 06:45:00,32.5,21.7,29.97,West,260,2.0,5.0,64,0.00,,,0.00,meteohub,2013-04-26 12:45:00,
2013-04-26 06:51:00,32.4,22.3,29.97,West,260,3.0,5.0,66,0.00,,,0.00,meteohub,2013-04-26 12:51:00,
2013-04-26 06:57:00,32.7,22.6,29.97,West,260,4.0,4.0,66,0.00,,,0.00,meteohub,2013-04-26 12:57:00,
2013-04-26 07:03:00,33.3,23.2,29.97,West,260,4.0,7.0,66,0.00,,,0.00,meteohub,2013-04-26 13:03:00,
2013-04-26 07:09:00,33.6,24.3,29.98,West,260,0.0,7.0,68,0.00,,,0.00,meteohub,2013-04-26 13:09:00,
2013-04-26 07:15:00,34.2,24.6,29.98,West,260,2.0,7.0,68,0.00,,,0.00,meteohub,2013-04-26 13:15:00,
2013-04-26 07:21:00,34.2,24.6,29.98,West,260,2.0,4.0,68,0.00,,,0.00,meteohub,2013-04-26 13:21:00,
2013-04-26 07:27:00,34.9,24.6,29.98,West,260,2.0,5.0,66,0.00,,,0.00,meteohub,2013-04-26 13:27:00,
2013-04-26 07:33:00,36.0,24.3,29.99,West,260,2.0,5.0,62,0.00,,,0.00,meteohub,2013-04-26 13:33:00,
2013-04-26 07:39:00,36.9,24.3,29.99,West,260,2.0,5.0,60,0.00,,,0.00,meteohub,2013-04-26 13:39:00,
2013-04-26 07:45:00,37.8,25.2,29.99,West,260,2.0,4.0,60,0.00,,,0.00,meteohub,2013-04-26 13:45:00,
2013-04-26 07:51:00,38.7,25.2,29.99,West,260,1.0,5.0,58,0.00,,,0.00,meteohub,2013-04-26 13:51:00,
2013-04-26 07:57:00,39.4,24.1,29.99,West,260,0.0,5.0,54,0.00,,,0.00,meteohub,2013-04-26 13:57:00,
2013-04-26 08:03:00,39.9,24.3,29.99,West,260,1.0,5.0,53,0.00,,,0.00,meteohub,2013-04-26 14:03:00,
2013-04-26 08:09:00,40.6,23.9,29.99,West,260,0.0,5.0,51,0.00,,,0.00,meteohub,2013-04-26 14:09:00,
2013-04-26 08:15:00,41.4,24.6,29.99,West,260,3.0,4.0,51,0.00,,,0.00,meteohub,2013-04-26 14:15:00,
2013-04-26 08:21:00,41.5,24.3,29.99,West,260,0.0,4.0,50,0.00,,,0.00,meteohub,2013-04-26 14:21:00,
2013-04-26 08:27:00,42.1,24.8,29.99,West,260,2.0,5.0,50,0.00,,,0.00,meteohub,2013-04-26 14:27:00,
2013-04-26 08:33:00,42.4,24.6,29.99,West,260,0.0,5.0,49,0.00,,,0.00,meteohub,2013-04-26 14:33:00,
2013-04-26 08:39:00,43.0,25.7,29.99,West,260,3.0,5.0,50,0.00,,,0.00,meteohub,2013-04-26 14:39:00,
2013-04-26 08:45:00,43.0,24.6,29.99,West,260,0.0,5.0,48,0.00,,,0.00,meteohub,2013-04-26 14:45:00,
2013-04-26 08:51:00,43.3,24.4,29.99,West,260,4.0,5.0,47,0.00,,,0.00,meteohub,2013-04-26 14:51:00,
2013-04-26 08:57:00,43.9,25.5,29.99,West,260,3.0,5.0,48,0.00,,,0.00,meteohub,2013-04-26 14:57:00,
2013-04-26 09:03:00,44.2,25.3,29.99,West,260,0.0,6.0,47,0.00,,,0.00,meteohub,2013-04-26 15:03:00,
2013-04-26 09:09:00,45.3,25.2,29.99,West,260,1.0,6.0,45,0.00,,,0.00,meteohub,2013-04-26 15:09:00,
2013-04-26 09:15:00,46.0,23.7,29.99,West,260,3.0,4.0,41,0.00,,,0.00,meteohub,2013-04-26 15:15:00,
2013-04-26 09:21:00,46.0,23.7,29.99,West,260,4.0,4.0,41,0.00,,,0.00,meteohub,2013-04-26 15:21:00,
2013-04-26 09:27:00,46.4,23.4,29.99,SSW,213,3.0,7.0,40,0.00,,,0.00,meteohub,2013-04-26 15:27:00,
2013-04-26 09:33:00,46.8,23.2,29.99,SSW,210,4.0,7.0,39,0.00,,,0.00,meteohub,2013-04-26 15:33:00,
2013-04-26 09:39:00,47.3,23.0,29.99,SSW,200,3.0,7.0,38,0.00,,,0.00,meteohub,2013-04-26 15:39:00,
2013-04-26 09:45:00,47.8,22.1,29.99,South,184,7.0,7.0,36,0.00,,,0.00,meteohub,2013-04-26 15:45:00,
2013-04-26 09:51:00,48.4,22.6,29.99,South,183,0.0,8.0,36,0.00,,,0.00,meteohub,2013-04-26 15:51:00,
2013-04-26 09:58:00,48.7,22.3,29.99,South,183,3.0,8.0,35,0.00,,,0.00,meteohub,2013-04-26 15:58:00,
2013-04-26 10:04:00,49.6,18.7,29.99,SSE,166,7.0,7.0,29,0.00,,,0.00,meteohub,2013-04-26 16:04:00,
2013-04-26 10:10:00,49.8,20.3,30.00,SE,142,3.0,9.0,31,0.00,,,0.00,meteohub,2013-04-26 16:10:00,
2013-04-26 10:16:00,50.2,20.7,30.00,SE,140,4.0,9.0,31,0.00,,,0.00,meteohub,2013-04-26 16:16:00,
2013-04-26 10:22:00,50.5,18.7,30.00,SE,140,3.0,8.0,28,0.00,,,0.00,meteohub,2013-04-26 16:22:00,
2013-04-26 10:28:00,51.4,15.8,30.00,SE,139,2.0,8.0,24,0.00,,,0.00,meteohub,2013-04-26 16:28:00,
2013-04-26 10:34:00,51.6,17.8,30.00,SE,139,2.0,8.0,26,0.00,,,0.00,meteohub,2013-04-26 16:34:00,
2013-04-26 10:40:00,51.4,15.8,30.00,SE,131,8.0,9.0,24,0.00,,,0.00,meteohub,2013-04-26 16:40:00,
2013-04-26 10:46:00,52.2,17.4,30.00,ESE,112,10.0,10.0,25,0.00,,,0.00,meteohub,2013-04-26 16:46:00,
2013-04-26 10:52:00,52.3,14.5,30.00,ESE,113,2.0,11.0,22,0.00,,,0.00,meteohub,2013-04-26 16:52:00,
2013-04-26 10:58:00,52.5,13.6,30.00,SE,129,5.0,14.0,21,0.00,,,0.00,meteohub,2013-04-26 16:58:00,
2013-04-26 11:04:00,52.3,13.5,30.00,East,85,7.0,14.0,21,0.00,,,0.00,meteohub,2013-04-26 17:04:00,
2013-04-26 11:10:00,52.9,11.7,30.00,ESE,120,8.0,14.0,19,0.00,,,0.00,meteohub,2013-04-26 17:10:00,
2013-04-26 11:16:00,53.1,14.2,30.01,ENE,64,4.0,14.0,21,0.00,,,0.00,meteohub,2013-04-26 17:16:00,
2013-04-26 11:22:00,53.6,13.5,30.01,NE,49,8.0,13.0,20,0.00,,,0.00,meteohub,2013-04-26 17:22:00,
2013-04-26 11:28:00,54.1,15.1,30.01,NNE,19,5.0,14.0,21,0.00,,,0.00,meteohub,2013-04-26 17:28:00,
2013-04-26 11:34:00,54.3,12.9,30.01,NE,37,3.0,14.0,19,0.00,,,0.00,meteohub,2013-04-26 17:34:00,
2013-04-26 11:40:00,54.1,12.7,30.00,NW,309,3.0,14.0,19,0.00,,,0.00,meteohub,2013-04-26 17:40:00,
2013-04-26 11:46:00,54.3,12.9,30.00,NW,309,2.0,11.0,19,0.00,,,0.00,meteohub,2013-04-26 17:46:00,
2013-04-26 11:52:00,55.2,16.0,30.00,ENE,64,8.0,11.0,21,0.00,,,0.00,meteohub,2013-04-26 17:52:00,
2013-04-26 11:58:00,55.6,12.7,30.00,East,82,2.0,11.0,18,0.00,,,0.00,meteohub,2013-04-26 17:58:00,
2013-04-26 12:04:00,55.9,13.1,30.00,East,87,6.0,11.0,18,0.00,,,0.00,meteohub,2013-04-26 18:04:00,
2013-04-26 12:10:00,56.3,14.5,30.00,NNE,19,6.0,10.0,19,0.00,,,0.00,meteohub,2013-04-26 18:10:00,
2013-04-26 12:16:00,55.9,13.1,30.00,North,349,7.0,10.0,18,0.00,,,0.00,meteohub,2013-04-26 18:16:00,
2013-04-26 12:22:00,55.4,12.6,30.00,NNW,330,5.0,12.0,18,0.00,,,0.00,meteohub,2013-04-26 18:22:00,
2013-04-26 12:28:00,54.1,12.7,30.00,WNW,282,8.0,12.0,19,0.00,,,0.00,meteohub,2013-04-26 18:28:00,
2013-04-26 12:34:00,53.1,13.1,30.00,West,275,3.0,12.0,20,0.00,,,0.00,meteohub,2013-04-26 18:34:00,
2013-04-26 12:40:00,53.2,13.1,29.99,WSW,245,2.0,12.0,20,0.00,,,0.00,meteohub,2013-04-26 18:40:00,
2013-04-26 12:46:00,54.0,13.8,29.99,SW,215,6.0,11.0,20,0.00,,,0.00,meteohub,2013-04-26 18:46:00,
2013-04-26 12:52:00,54.1,12.7,29.99,SSW,205,4.0,14.0,19,0.00,,,0.00,meteohub,2013-04-26 18:52:00,
2013-04-26 12:58:00,54.1,12.7,29.99,South,176,5.0,14.0,19,0.00,,,0.00,meteohub,2013-04-26 18:58:00,
2013-04-26 13:04:00,55.8,14.2,29.99,South,173,7.0,14.0,19,0.00,,,0.00,meteohub,2013-04-26 19:04:00,
2013-04-26 13:10:00,57.0,14.0,29.98,SSW,200,9.0,14.0,18,0.00,,,0.00,meteohub,2013-04-26 19:10:00,
2013-04-26 13:16:00,58.1,13.5,29.99,NNW,335,2.0,14.0,17,0.00,,,0.00,meteohub,2013-04-26 19:16:00,
2013-04-26 13:22:00,58.5,13.8,29.99,NNE,21,0.0,14.0,17,0.00,,,0.00,meteohub,2013-04-26 19:22:00,
2013-04-26 13:28:00,58.1,13.5,29.99,NNW,340,8.0,14.0,17,0.00,,,0.00,meteohub,2013-04-26 19:28:00,
2013-04-26 13:34:00,58.1,12.2,29.99,NNW,330,7.0,13.0,16,0.00,,,0.00,meteohub,2013-04-26 19:34:00,
2013-04-26 13:41:00,57.6,11.7,29.99,WNW,282,4.0,13.0,16,0.00,,,0.00,meteohub,2013-04-26 19:41:00,
2013-04-26 13:47:00,57.4,14.2,29.99,SW,230,13.0,13.0,18,0.00,,,0.00,meteohub,2013-04-26 19:47:00,
2013-04-26 13:52:00,56.8,12.4,29.99,WSW,239,8.0,21.0,17,0.00,,,0.00,meteohub,2013-04-26 19:52:00,
2013-04-26 13:59:00,55.9,10.4,29.99,WSW,244,4.0,21.0,16,0.00,,,0.00,meteohub,2013-04-26 19:59:00,
2013-04-26 14:05:00,55.6,10.0,29.99,WSW,244,1.0,17.0,16,0.00,,,0.00,meteohub,2013-04-26 20:05:00,
2013-04-26 14:11:00,55.8,11.7,29.99,SW,232,5.0,16.0,17,0.00,,,0.00,meteohub,2013-04-26 20:11:00,
2013-04-26 14:17:00,55.8,11.7,29.99,SW,228,3.0,16.0,17,0.00,,,0.00,meteohub,2013-04-26 20:17:00,
2013-04-26 14:23:00,56.3,12.0,29.99,SW,228,1.0,16.0,17,0.00,,,0.00,meteohub,2013-04-26 20:23:00,
2013-04-26 14:29:00,57.9,12.0,29.99,North,352,12.0,12.0,16,0.00,,,0.00,meteohub,2013-04-26 20:29:00,
2013-04-26 14:35:00,59.4,11.7,29.99,NNW,343,7.0,11.0,15,0.00,,,0.00,meteohub,2013-04-26 20:35:00,
2013-04-26 14:41:00,59.5,6.8,29.99,NE,44,3.0,13.0,12,0.00,,,0.00,meteohub,2013-04-26 20:41:00,
2013-04-26 14:47:00,58.8,9.7,29.99,NE,44,0.0,13.0,14,0.00,,,0.00,meteohub,2013-04-26 20:47:00,
2013-04-26 14:53:00,58.8,8.1,29.99,NE,44,2.0,13.0,13,0.00,,,0.00,meteohub,2013-04-26 20:53:00,
2013-04-26 14:59:00,59.4,8.4,29.99,East,81,8.0,11.0,13,0.00,,,0.00,meteohub,2013-04-26 20:59:00,
2013-04-26 15:05:00,58.6,9.5,29.99,East,100,5.0,8.0,14,0.00,,,0.00,meteohub,2013-04-26 21:05:00,
2013-04-26 15:11:00,59.0,11.5,29.99,East,100,6.0,11.0,15,0.00,,,0.00,meteohub,2013-04-26 21:11:00,
2013-04-26 15:17:00,59.5,11.8,29.99,ENE,59,9.0,11.0,15,0.00,,,0.00,meteohub,2013-04-26 21:17:00,
2013-04-26 15:23:00,58.5,10.9,29.99,East,100,10.0,11.0,15,0.00,,,0.00,meteohub,2013-04-26 21:23:00,
2013-04-26 15:29:00,57.2,11.5,29.99,West,273,13.0,14.0,16,0.00,,,0.00,meteohub,2013-04-26 21:29:00,
2013-04-26 15:35:00,56.3,12.0,29.99,SW,224,8.0,22.0,17,0.00,,,0.00,meteohub,2013-04-26 21:35:00,
2013-04-26 15:41:00,56.1,13.1,29.99,SW,232,10.0,22.0,18,0.00,,,0.00,meteohub,2013-04-26 21:41:00,
2013-04-26 15:47:00,56.3,12.0,29.99,SW,217,10.0,19.0,17,0.00,,,0.00,meteohub,2013-04-26 21:47:00,
2013-04-26 15:53:00,57.0,11.3,29.99,SSW,199,12.0,19.0,16,0.00,,,0.00,meteohub,2013-04-26 21:53:00,
2013-04-26 15:59:00,57.2,9.9,29.99,South,174,6.0,19.0,15,0.00,,,0.00,meteohub,2013-04-26 21:59:00,
2013-04-26 16:05:00,56.8,9.7,29.99,SSE,156,4.0,14.0,15,0.00,,,0.00,meteohub,2013-04-26 22:05:00,
2013-04-26 16:11:00,57.0,11.3,29.99,NNE,24,3.0,13.0,16,0.00,,,0.00,meteohub,2013-04-26 22:11:00,
2013-04-26 16:17:00,57.6,11.7,29.99,SE,135,2.0,17.0,16,0.00,,,0.00,meteohub,2013-04-26 22:17:00,
2013-04-26 16:23:00,57.7,19.2,29.99,ESE,107,5.0,17.0,22,0.00,,,0.00,meteohub,2013-04-26 22:23:00,
2013-04-26 16:29:00,57.7,18.1,29.99,ESE,114,2.0,17.0,21,0.00,,,0.00,meteohub,2013-04-26 22:29:00,
2013-04-26 16:35:00,57.0,16.3,29.99,ENE,68,7.0,15.0,20,0.00,,,0.00,meteohub,2013-04-26 22:35:00,
2013-04-26 16:41:00,56.1,15.6,29.99,East,95,5.0,15.0,20,0.00,,,0.00,meteohub,2013-04-26 22:41:00,
2013-04-26 16:47:00,55.2,16.0,29.99,ESE,104,8.0,14.0,21,0.00,,,0.00,meteohub,2013-04-26 22:47:00,
2013-04-26 16:53:00,54.5,16.3,30.00,ENE,75,4.0,14.0,22,0.00,,,0.00,meteohub,2013-04-26 22:53:00,
2013-04-26 16:59:00,54.3,16.3,30.00,ENE,77,9.0,14.0,22,0.00,,,0.00,meteohub,2013-04-26 22:59:00,
2013-04-26 17:05:00,54.1,15.1,30.00,ENE,69,2.0,17.0,21,0.00,,,0.00,meteohub,2013-04-26 23:05:00,
2013-04-26 17:11:00,54.1,15.1,30.00,East,97,7.0,17.0,21,0.00,,,0.00,meteohub,2013-04-26 23:11:00,
2013-04-26 17:17:00,54.0,14.9,30.00,East,85,6.0,13.0,21,0.00,,,0.00,meteohub,2013-04-26 23:17:00,
2013-04-26 17:24:00,53.8,13.6,30.00,East,96,6.0,13.0,20,0.00,,,0.00,meteohub,2013-04-26 23:24:00,
2013-04-26 17:30:00,54.0,16.0,30.00,East,98,5.0,13.0,22,0.00,,,0.00,meteohub,2013-04-26 23:30:00,
2013-04-26 17:36:00,53.8,14.7,30.00,East,91,7.0,13.0,21,0.00,,,0.00,meteohub,2013-04-26 23:36:00,
2013-04-26 17:42:00,54.0,12.6,29.99,ESE,114,8.0,16.0,19,0.00,,,0.00,meteohub,2013-04-26 23:42:00,
2013-04-26 17:48:00,54.3,11.7,30.00,ESE,122,2.0,23.0,18,0.00,,,0.00,meteohub,2013-04-26 23:48:00,
2013-04-26 17:54:00,54.1,12.7,30.00,ESE,119,1.0,23.0,19,0.00,,,0.00,meteohub,2013-04-26 23:54:00,
2013-04-26 18:06:00,53.4,13.3,30.01,ESE,119,1.0,8.0,20,0.00,,,0.00,meteohub,2013-04-27 00:06:00,
2013-04-26 18:12:00,53.4,13.3,30.01,ESE,119,1.0,7.0,20,0.00,,,0.00,meteohub,2013-04-27 00:12:00,
2013-04-26 18:18:00,53.2,13.1,30.01,ESE,119,3.0,4.0,20,0.00,,,0.00,meteohub,2013-04-27 00:18:00,
2013-04-26 18:24:00,52.7,19.6,30.01,ENE,76,7.0,7.0,27,0.00,,,0.00,meteohub,2013-04-27 00:24:00,
2013-04-26 18:30:00,52.2,20.8,30.01,ESE,102,6.0,15.0,29,0.00,,,0.00,meteohub,2013-04-27 00:30:00,
2013-04-26 18:36:00,51.4,21.0,30.01,East,88,11.0,15.0,30,0.00,,,0.00,meteohub,2013-04-27 00:36:00,
2013-04-26 18:42:00,51.3,21.6,30.02,East,89,8.0,15.0,31,0.00,,,0.00,meteohub,2013-04-27 00:42:00,
2013-04-26 18:48:00,51.1,22.3,30.02,East,83,8.0,14.0,32,0.00,,,0.00,meteohub,2013-04-27 00:48:00,
2013-04-26 18:54:00,50.7,22.6,30.02,East,91,8.0,15.0,33,0.00,,,0.00,meteohub,2013-04-27 00:54:00,
2013-04-26 19:00:00,50.5,23.2,30.02,East,93,8.0,14.0,34,0.00,,,0.00,meteohub,2013-04-27 01:00:00,
2013-04-26 19:06:00,50.2,22.8,30.03,ESE,112,11.0,17.0,34,0.00,,,0.00,meteohub,2013-04-27 01:06:00,
2013-04-26 19:12:00,50.0,23.4,30.03,ESE,114,7.0,17.0,35,0.00,,,0.00,meteohub,2013-04-27 01:12:00,
2013-04-26 19:18:00,49.8,23.2,30.03,ESE,104,7.0,15.0,35,0.00,,,0.00,meteohub,2013-04-27 01:18:00,
2013-04-26 19:24:00,49.8,23.2,30.04,ESE,109,4.0,15.0,35,0.00,,,0.00,meteohub,2013-04-27 01:24:00,
2013-04-26 19:30:00,49.6,23.2,30.04,ENE,72,3.0,13.0,35,0.00,,,0.00,meteohub,2013-04-27 01:30:00,
2013-04-26 19:36:00,49.5,23.5,30.05,NE,37,8.0,11.0,36,0.00,,,0.00,meteohub,2013-04-27 01:36:00,
2013-04-26 19:42:00,48.9,23.2,30.05,NNE,27,9.0,11.0,36,0.00,,,0.00,meteohub,2013-04-27 01:42:00,
2013-04-26 19:49:00,48.2,22.5,30.06,NNE,29,7.0,11.0,36,0.00,,,0.00,meteohub,2013-04-27 01:49:00,
2013-04-26 19:55:00,47.8,22.8,30.06,NNE,27,5.0,11.0,37,0.00,,,0.00,meteohub,2013-04-27 01:55:00,
2013-04-26 20:01:00,47.5,22.5,30.06,NNE,19,9.0,11.0,37,0.00,,,0.00,meteohub,2013-04-27 02:01:00,
2013-04-26 20:07:00,47.1,22.8,30.06,North,10,5.0,10.0,38,0.00,,,0.00,meteohub,2013-04-27 02:07:00,
2013-04-26 20:13:00,47.1,22.8,30.07,North,10,3.0,10.0,38,0.00,,,0.00,meteohub,2013-04-27 02:13:00,
2013-04-26 20:19:00,47.1,23.4,30.07,North,10,4.0,10.0,39,0.00,,,0.00,meteohub,2013-04-27 02:19:00,
2013-04-26 20:25:00,46.9,23.9,30.08,North,10,3.0,8.0,40,0.00,,,0.00,meteohub,2013-04-27 02:25:00,
2013-04-26 20:31:00,46.9,24.4,30.08,North,10,3.0,5.0,41,0.00,,,0.00,meteohub,2013-04-27 02:31:00,
2013-04-26 20:37:00,46.6,25.9,30.09,North,10,0.0,5.0,44,0.00,,,0.00,meteohub,2013-04-27 02:37:00,
2013-04-26 20:43:00,46.2,25.0,30.09,North,10,3.0,5.0,43,0.00,,,0.00,meteohub,2013-04-27 02:43:00,
2013-04-26 20:49:00,46.2,25.0,30.09,North,10,6.0,6.0,43,0.00,,,0.00,meteohub,2013-04-27 02:49:00,
2013-04-26 20:55:00,46.0,25.9,30.10,South,189,6.0,7.0,45,0.00,,,0.00,meteohub,2013-04-27 02:55:00,
2013-04-26 21:01:00,46.0,27.0,30.10,South,179,5.0,12.0,47,0.00,,,0.00,meteohub,2013-04-27 03:01:00,
2013-04-26 21:07:00,45.9,26.8,30.11,South,179,0.0,12.0,47,0.00,,,0.00,meteohub,2013-04-27 03:07:00,
2013-04-26 21:13:00,45.3,27.3,30.10,South,179,0.0,10.0,49,0.00,,,0.00,meteohub,2013-04-27 03:13:00,
2013-04-26 21:19:00,45.0,27.9,30.11,South,179,3.0,7.0,51,0.00,,,0.00,meteohub,2013-04-27 03:19:00,
2013-04-26 21:25:00,44.2,28.6,30.11,South,170,7.0,9.0,54,0.00,,,0.00,meteohub,2013-04-27 03:25:00,
2013-04-26 21:31:00,43.5,29.3,30.11,South,179,14.0,14.0,57,0.00,,,0.00,meteohub,2013-04-27 03:31:00,
2013-04-26 21:37:00,43.2,29.3,30.11,South,175,6.0,16.0,58,0.00,,,0.00,meteohub,2013-04-27 03:37:00,
2013-04-26 21:43:00,42.6,29.7,30.12,South,183,5.0,16.0,60,0.00,,,0.00,meteohub,2013-04-27 03:43:00,
2013-04-26 21:49:00,42.4,29.5,30.12,South,178,5.0,16.0,60,0.00,,,0.00,meteohub,2013-04-27 03:49:00,
2013-04-26 21:55:00,42.1,29.7,30.12,South,169,6.0,10.0,61,0.00,,,0.00,meteohub,2013-04-27 03:55:00,
2013-04-26 22:01:00,41.7,29.7,30.13,South,169,4.0,8.0,62,0.00,,,0.00,meteohub,2013-04-27 04:01:00,
2013-04-26 22:02:00,41.7,30.0,30.12,South,169,2.0,8.0,63,0.00,,,0.00,meteohub,2013-04-27 04:02:00,
2013-04-26 22:07:00,41.5,29.8,30.12,South,169,5.0,8.0,63,0.00,,,0.00,meteohub,2013-04-27 04:07:00,
2013-04-26 22:10:00,41.4,30.0,30.12,SSW,212,10.0,11.0,64,0.00,,,0.00,meteohub,2013-04-27 04:10:00,
2013-04-26 22:13:00,41.4,30.6,30.13,SW,214,6.0,11.0,65,0.00,,,0.00,meteohub,2013-04-27 04:13:00,
2013-04-26 22:19:00,41.2,30.7,30.13,SW,228,5.0,12.0,66,0.00,,,0.00,meteohub,2013-04-27 04:19:00,
2013-04-26 22:22:00,40.8,30.4,30.13,SW,226,7.0,12.0,66,0.00,,,0.00,meteohub,2013-04-27 04:22:00,
2013-04-26 22:28:00,40.5,30.7,30.13,SW,223,4.0,11.0,68,0.00,,,0.00,meteohub,2013-04-27 04:28:00,
2013-04-26 22:34:00,40.5,31.1,30.13,SW,222,7.0,11.0,69,0.00,,,0.00,meteohub,2013-04-27 04:34:00,
2013-04-26 22:40:00,40.3,30.9,30.13,SW,222,5.0,10.0,69,0.00,,,0.00,meteohub,2013-04-27 04:40:00,
2013-04-26 22:46:00,39.9,31.3,30.13,SW,224,3.0,10.0,71,0.00,,,0.00,meteohub,2013-04-27 04:46:00,
2013-04-26 22:52:00,39.9,31.3,30.13,SSW,212,8.0,10.0,71,0.00,,,0.00,meteohub,2013-04-27 04:52:00,
2013-04-26 22:59:00,39.9,31.6,30.13,SSW,212,7.0,11.0,72,0.00,,,0.00,meteohub,2013-04-27 04:59:00,
2013-04-26 23:05:00,39.6,31.3,30.13,SSW,208,6.0,11.0,72,0.00,,,0.00,meteohub,2013-04-27 05:05:00,
2013-04-26 23:11:00,39.4,31.5,30.13,SSW,213,3.0,12.0,73,0.00,,,0.00,meteohub,2013-04-27 05:11:00,
2013-04-26 23:17:00,39.4,31.5,30.13,SW,222,8.0,12.0,73,0.00,,,0.00,meteohub,2013-04-27 05:17:00,
2013-04-26 23:23:00,39.4,31.5,30.13,SW,229,6.0,12.0,73,0.00,,,0.00,meteohub,2013-04-27 05:23:00,
2013-04-26 23:29:00,39.2,30.9,30.13,SW,230,5.0,10.0,72,0.00,,,0.00,meteohub,2013-04-27 05:29:00,
2013-04-26 23:35:00,39.4,30.4,30.13,SW,225,4.0,10.0,70,0.00,,,0.00,meteohub,2013-04-27 05:35:00,
2013-04-26 23:41:00,39.6,30.6,30.13,SW,229,6.0,11.0,70,0.00,,,0.00,meteohub,2013-04-27 05:41:00,
2013-04-26 23:47:00,39.7,30.7,30.13,WSW,258,7.0,11.0,70,0.00,,,0.00,meteohub,2013-04-27 05:47:00,
2013-04-26 23:53:00,39.7,29.7,30.13,WSW,257,5.0,15.0,67,0.00,,,0.00,meteohub,2013-04-27 05:53:00,
2013-04-26 23:59:00,39.2,28.8,30.13,WSW,257,3.0,15.0,66,0.00,,,0.00,meteohub,2013-04-27 05:59:00,